Flag for Switzerland Weather past 2 weeks in Allschwil, Basel-Land, Switzerland

Now
60 °F

Fog.


Feels Like: 61 °F
Forecast: 59 / 68 °F
Wind: 3 mph from Southwest

Location: Bale-Mulhouse

Current Time: Sep 20, 2014 at 8:43:36 AM

Latest Report: Sep 20, 2014 at 8:00 AM


Visibility: 6 mi

Pressure: 30.00 "Hg

Humidity: 97%

Dew point: 59 °F

Location of AllschwilLocation

Historic Weather in Allschwil — Graph

°F

Allschwil temperature yesterday

Maximum temperature yesterday: 75 °F (at 3:00 PM)
Minimum temperature yesterday: 58 °F (at 6:00 AM)
Average temperature yesterday: 66 °F

Past Weeks' High & Low Weather Summary

 TemperatureHumidityPressure
High81 °F (Sep 8, 4:00 PM)99% (Sep 15, 4:00 AM)30.14 "Hg (Sep 15, 4:00 AM)
Low49 °F (Sep 11, 6:00 AM)43% (Sep 5, 6:00 PM)29.80 "Hg (Sep 17, 4:00 PM)
Average63 °F83%29.98 "Hg
* Reported Sep 5 7:00 AM — Sep 20 7:00 AM, Allschwil, Weather by CustomWeather, © 2014

Note: Actual official high and low records may vary slightly from our data, if they occured in-between our weather recording intervals... More about our weather records

Advertising

Allschwil weather history for previous 24 hours

 ConditionsComfort  
Time TempWeatherWind HumidityBarometerVisibility
7:00 AM
Sep 20
59 °FFog.3 mph97%29.99 "Hg4 mi
6:00 AM62 °FPassing clouds.6 mph96%29.98 "Hg7 mi
5:00 AM62 °FLow clouds.3 mph97%29.97 "Hg4 mi
4:00 AM63 °FLow clouds.3 mph97%30.00 "Hg7 mi
3:00 AM62 °FFreezing rain. Overcast.5 mph96%30.01 "Hg1 mi
2:00 AM63 °FLight freezing rain. Overcast.6 mph96%30.02 "Hg1 mi
1:00 AM63 °FOvercast.6 mph96%30.01 "Hg12 mi
12:00 AM63 °FSprinkles. Overcast.3 mph94%29.99 "Hg12 mi
10:00 PM
Sep 19
63 °FOvercast.2 mph93%29.98 "Hg25 mi
9:00 PM63 °FPassing clouds.3 mph92%29.98 "Hg25 mi
8:00 PM64 °FPassing clouds.5 mph91%29.96 "Hg25 mi
7:00 PM69 °FOvercast.2 mph75%29.94 "Hg25 mi
6:00 PM70 °FOvercast.2 mph70%29.94 "Hg19 mi
5:00 PM71 °FOvercast.5 mph69%29.94 "Hg19 mi
4:00 PM72 °FOvercast.10 mph66%29.94 "Hg19 mi
3:00 PM75 °FOvercast.5 mph66%29.93 "Hg19 mi
2:00 PM74 °FOvercast.1 mph66%29.93 "Hg19 mi
1:00 PM74 °FOvercast.No wind65%29.93 "Hg19 mi
12:00 PM73 °FOvercast.5 mph67%29.93 "Hg19 mi
11:00 AM71 °FOvercast.7 mph74%29.94 "Hg12 mi
10:00 AM67 °FPartly sunny.7 mph85%29.93 "Hg14 mi
9:00 AM63 °FOvercast.3 mph96%29.94 "Hg7 mi
8:00 AM61 °FFog.3 mph97%29.94 "Hg5 mi
Weather by CustomWeather, © 2014

See weather overviewHow to use our weather pages